sat.trackr.live / text

‹ back to catalog

ONEWEB-0444

NORAD 51638 · 2022-012S

PAYLOAD ACTIVE UNKNOWN

§ Identity

Operator
Country
UK
Launch date
2022-02-10
Launch site
FRGUI
Launch vehicle
Mass (kg)
RCS (m²)

Purposes: comms

External: N2YO · Heavens-Above · Gunter

§ Orbital elements

Epoch: 2026-05-25T02:41:49.992288Z

Period
109.89 min
Inclination
87.8848°
Eccentricity
0.0001960
Mean motion
13.10370114 rev/d
Perigee alt
1,220.2 km
Apogee alt
1,223.2 km
Semi-major
7,599.9 km
B*
-1.7678e-3
RAAN
40.8611°
Arg perigee
77.2817°
Mean anomaly
282.8529°
Rev number
20,631

§ Raw data

ONEWEB-04441 51638U 22012S   26145.11238417 -.00000604  00000+0 -17678-2 0  99972 51638  87.8848  40.8611 0001960  77.2817 282.8529 13.10370114206315

JSON: /api/v1/satellites/51638 · /tle

For live sub-satellite position, see the globe view (requires WebGL).

§ Visibility from observer

Set your observer location to see the next 7 days of passes ≥ 10°. The values pass through the URL so the page stays shareable.

No JS? Fill the form by hand. The geolocation button needs JavaScript.